Wind_Speed
50 49 48 46 45 43 42 41 39 37 34 31 29 28 27 27 28 29 30 30 29 28 27 26 25 26 29 31 32 34 35 35 35 35 36 34 32 30 29 28 29 29 29
55 55 54 52 50 49 47 46 43 40 37 34 31 29 28 27 28 29 30 31 30 29 27 25 24 24 25 27 30 31 32 33 33 34 34 33 31 30 30 28 28 27 27
60 61 61 59 57 55 53 50 48 45 41 37 35 32 30 29 29 30 30 31 31 29 28 26 24 23 23 24 26 27 29 30 30 31 32 32 31 31 31 31 29 27 27
65 66 66 66 64 62 59 56 54 50 45 41 38 36 34 33 32 32 32 31 31 30 28 26 24 22 21 21 23 24 26 28 28 29 30 30 31 30 30 29 27 26 25
71 72 73 72 72 71 68 64 60 55 50 44 41 38 37 36 35 34 33 32 31 30 28 26 24 21 20 20 21 23 25 26 27 27 28 27 29 29 28 27 26 24 22
75 76 76 74 73 73 72 68 63 58 52 48 44 42 41 39 38 37 35 34 32 30 28 26 24 21 19 21 23 24 25 26 27 27 28 29 30 29 28 25 22 20 18
83 83 82 80 77 74 71 67 64 60 56 52 48 47 45 43 41 39 38 35 33 31 28 26 24 22 21 21 23 24 26 28 29 28 29 28 27 24 22 19 18 16 15
86 88 89 89 86 84 82 79 75 71 66 61 57 53 50 47 44 41 39 36 34 32 29 27 25 22 21 21 22 24 25 26 28 28 27 25 22 19 18 17 17 16 14
68 71 74 77 78 79 79 79 77 75 71 65 60 56 52 48 45 42 40 37 35 33 30 28 25 22 22 21 22 23 24 25 25 24 23 20 19 18 18 16 15 14 13
47 50 52 53 54 57 60 63 65 66 65 62 58 53 49 47 45 43 40 39 36 34 31 28 26 23 22 22 21 23 23 23 22 21 21 20 19 18 16 15 14 13 13
38 38 38 38 38 40 42 45 49 53 55 55 54 51 49 47 46 44 41 39 37 34 32 29 26 24 22 22 22 23 22 22 21 21 20 19 18 16 15 14 13 12 11
39 37 34 32 31 30 30 32 35 39 44 49 51 51 51 48 46 44 42 40 37 34 31 28 26 24 23 23 23 23 22 21 20 20 18 17 16 15 14 13 12 10 9
41 38 36 33 30 28 27 28 29 31 35 41 47 50 53 50 46 44 43 40 37 33 31 28 25 24 24 24 24 23 23 22 21 19 18 16 15 14 13 12 11 10 10
43 40 37 34 30 27 25 24 23 24 25 29 37 44 51 49 46 45 42 40 35 32 29 27 25 23 24 24 23 23 23 22 20 19 17 16 15 14 13 13 12 11 10
42 40 38 34 30 26 24 23 21 21 20 22 27 34 44 46 44 42 39 37 34 31 29 27 25 24 25 24 23 23 23 22 20 18 17 16 15 14 13 13 12 12 11
39 38 36 34 31 28 25 24 23 22 21 21 23 27 36 42 42 41 39 36 34 32 30 28 26 25 25 23 22 22 22 21 20 18 17 16 16 15 14 14 13 14 13
35 34 33 33 32 30 28 27 26 25 23 22 23 25 31 38 40 40 38 37 34 32 30 28 27 26 25 24 23 22 22 21 19 18 18 17 17 16 16 15 16 16 16
29 29 30 31 32 31 29 28 27 26 24 23 24 26 29 35 40 40 39 36 34 32 30 29 28 27 26 24 23 22 21 20 19 18 18 18 18 18 18 18 18 19 19
21 22 25 27 29 30 29 28 26 25 24 22 24 28 32 37 42 42 39 36 33 31 30 30 28 27 26 25 23 22 21 20 20 19 19 19 19 20 20 20 21 21 22
12 16 21 24 27 28 28 27 26 24 24 23 25 31 36 41 44 42 39 36 33 32 31 30 28 26 25 24 23 21 20 20 19 19 20 20 20 20 21 22 23 24 25
8 14 19 23 26 27 27 26 24 24 24 25 30 35 37 41 41 38 35 33 32 31 30 29 27 26 25 23 21 20 19 19 19 19 19 20 20 21 22 23 24 26 26
9 14 20 24 26 26 26 24 24 24 26 29 34 37 40 41 38 35 33 32 31 30 29 27 26 25 23 22 20 19 18 18 18 19 19 20 20 21 22 24 25 25 26
13 18 22 25 27 27 25 24 25 28 30 33 37 39 40 39 36 35 33 32 31 29 27 26 24 23 21 20 18 17 17 17 17 18 19 20 20 21 21 22 23 23 24
20 24 27 28 27 26 26 27 30 32 34 36 38 40 39 37 36 34 32 30 29 27 25 24 22 20 19 18 17 16 16 16 16 17 18 19 20 20 21 21 22 22 23
26 28 29 28 29 30 31 32 33 36 37 37 39 38 36 35 33 31 30 28 26 25 23 21 19 17 16 15 15 15 15 16 16 17 18 18 19 20 20 21 21 22 22
32 33 34 34 34 34 35 36 37 37 37 37 37 35 33 31 30 29 27 25 23 22 20 18 16 15 14 14 15 15 15 15 15 16 17 17 18 19 20 21 21 22 22
Wind_Direction
275 274 274 273 274 274 276 277 278 279 281 283 285 288 292 298 306 312 317 320 319 315 309 302 289 275 265 260 257 257 257 257 256 256 255 253 251 249 245 245 246 251 253
275 275 275 275 274 274 274 275 275 276 277 278 281 284 287 294 301 307 312 315 317 315 310 304 295 282 269 261 256 255 254 252 252 250 249 247 245 241 240 244 246 249 255
273 274 274 275 274 274 273 273 273 273 274 274 276 279 283 289 297 303 307 310 312 312 309 305 297 286 274 265 257 253 251 249 247 244 242 241 241 240 242 246 247 252 258
273 273 273 273 273 272 272 271 271 270 270 270 271 274 278 284 291 297 302 305 306 306 304 302 298 289 275 267 258 252 249 246 244 241 240 237 238 241 242 246 251 257 258
271 270 270 270 270 269 269 267 266 264 264 265 267 270 275 281 287 292 295 298 300 300 299 297 295 289 276 268 259 252 247 244 239 236 235 237 238 241 242 248 251 251 253
267 266 265 264 265 264 262 260 258 258 259 262 264 267 272 277 282 285 288 290 291 292 292 291 290 284 274 267 259 249 243 238 233 233 235 237 240 240 242 246 244 242 241
267 265 265 264 263 262 259 257 256 256 258 261 261 265 269 272 276 278 280 282 283 282 283 283 282 276 271 265 257 246 243 240 236 237 237 237 236 235 234 230 228 228 230
271 269 268 267 266 265 263 262 261 261 262 263 264 265 266 267 270 271 271 272 273 272 273 273 273 269 263 259 253 246 242 240 238 236 232 230 224 217 215 218 222 225 229
279 275 272 271 269 268 266 265 264 263 262 262 261 260 260 261 262 262 262 262 263 263 263 263 263 260 256 253 250 245 239 236 231 225 220 215 212 209 207 212 218 222 228
288 283 278 275 273 270 267 265 262 260 257 255 253 251 250 251 253 253 252 252 254 255 255 254 253 252 250 246 244 241 236 229 224 219 213 207 204 203 205 211 217 222 227
295 292 285 280 276 272 266 262 258 253 249 244 240 237 235 238 242 243 244 245 246 247 247 246 246 245 242 239 236 233 230 226 220 210 202 199 199 201 205 209 214 220 226
290 289 287 282 279 273 269 262 255 248 240 233 227 223 220 224 229 234 236 237 238 238 238 237 238 237 233 230 227 225 221 216 207 199 195 195 197 199 202 204 208 212 216
285 282 281 277 274 271 268 264 256 245 236 228 221 216 213 214 219 224 228 230 230 230 229 229 230 229 225 221 218 214 210 203 195 191 192 194 195 196 196 197 199 205 213
281 277 274 270 267 264 261 257 248 238 230 225 220 216 212 210 212 216 220 221 221 221 220 221 222 220 216 212 207 203 196 190 188 190 193 194 193 193 194 197 201 210 219
278 271 266 262 256 252 248 243 236 229 223 220 217 216 213 210 207 209 209 210 211 211 212 213 213 211 206 201 198 193 189 188 190 193 194 193 193 195 199 204 210 218 228
276 268 260 253 245 240 236 234 231 229 226 225 220 216 212 209 203 199 198 200 201 203 205 206 205 202 198 194 191 189 189 191 195 196 196 197 199 202 206 213 220 228 236
275 263 253 245 237 232 229 228 229 229 228 226 223 217 208 201 194 190 192 194 196 199 200 200 198 196 194 192 191 192 193 195 198 199 200 203 206 211 216 223 231 238 245
272 256 244 235 229 224 222 222 224 225 224 221 216 207 200 194 189 185 186 190 193 194 195 194 193 192 191 191 192 193 196 198 200 202 205 209 214 219 225 233 240 247 253
268 244 230 223 217 214 214 214 216 216 216 211 204 199 193 188 183 183 184 187 189 191 190 189 189 190 189 190 192 196 199 202 204 207 211 216 222 228 234 241 248 254 261
252 221 211 205 202 202 204 206 207 208 207 200 194 187 185 182 180 182 183 184 187 187 186 186 187 188 188 190 194 198 202 205 209 213 218 224 231 237 243 249 255 261 267
217 196 190 186 187 190 194 196 197 195 192 188 181 178 178 176 177 178 180 182 184 184 183 184 185 185 186 190 195 200 204 209 214 220 226 232 238 244 250 257 263 268 273
167 170 171 173 176 180 181 183 184 183 179 174 170 171 170 169 171 172 174 177 179 180 181 182 182 182 185 190 196 201 207 214 221 227 234 240 245 251 258 263 268 273 276
135 150 157 161 164 167 168 171 172 168 164 163 165 165 165 165 167 168 171 174 176 177 178 179 180 182 186 191 197 204 212 219 227 235 242 247 252 258 263 268 272 275 278
123 137 144 148 152 154 156 155 153 153 154 157 159 159 161 163 165 167 169 172 174 175 176 178 181 184 189 196 203 212 220 228 236 243 249 254 258 263 269 273 275 278 280
116 125 131 136 139 140 140 141 144 147 149 152 154 156 158 161 163 165 168 170 172 174 177 181 186 192 199 207 215 223 230 237 242 247 252 256 262 267 271 274 276 280 282
112 118 122 125 128 130 132 134 137 141 145 148 153 157 159 161 163 164 167 171 175 179 183 189 197 205 213 222 229 234 238 242 246 250 254 260 265 269 273 276 279 281 282
Height
5773 5772 5771 5770 5768 5767 5765 5764 5762 5760 5759 5757 5756 5754 5752 5750 5748 5745 5742 5739 5735 5731 5727 5724 5722 5721 5721 5722 5724 5725 5727 5729 5731 5733 5733 5735 5736 5738 5739 5741 5743 5745 5747
5757 5756 5754 5754 5753 5752 5752 5751 5749 5748 5747 5746 5745 5744 5742 5741 5739 5737 5735 5732 5729 5725 5721 5718 5716 5714 5713 5714 5715 5717 5719 5720 5722 5724 5726 5728 5729 5731 5733 5735 5737 5738 5740
5740 5738 5736 5735 5735 5735 5736 5735 5735 5735 5734 5733 5733 5733 5732 5731 5730 5729 5727 5725 5722 5719 5716 5713 5710 5708 5707 5707 5708 5709 5711 5713 5714 5716 5718 5721 5723 5724 5727 5729 5731 5733 5734
5720 5718 5717 5715 5715 5716 5717 5718 5719 5719 5720 5720 5720 5721 5721 5721 5720 5720 5719 5717 5715 5713 5710 5707 5704 5702 5701 5701 5701 5703 5704 5706 5707 5709 5711 5713 5716 5718 5721 5723 5725 5727 5728
5699 5697 5695 5694 5694 5694 5696 5698 5700 5702 5704 5705 5706 5707 5708 5709 5710 5710 5709 5708 5707 5705 5703 5701 5698 5696 5695 5695 5695 5696 5698 5700 5701 5703 5706 5708 5710 5712 5715 5717 5720 5721 5723
5677 5675 5673 5671 5672 5672 5674 5677 5680 5683 5686 5689 5691 5693 5695 5697 5698 5699 5699 5699 5699 5698 5697 5695 5693 5691 5689 5689 5690 5691 5693 5695 5696 5698 5700 5703 5705 5707 5710 5712 5715 5717 5718
5650 5649 5648 5647 5648 5651 5652 5654 5658 5662 5666 5671 5675 5678 5681 5683 5686 5688 5689 5690 5690 5690 5689 5688 5687 5685 5684 5684 5685 5686 5687 5689 5691 5694 5695 5697 5699 5702 5704 5707 5710 5713 5715
5621 5619 5619 5619 5621 5624 5627 5630 5635 5640 5645 5651 5657 5662 5666 5669 5672 5675 5677 5679 5680 5680 5681 5681 5680 5679 5679 5679 5680 5681 5682 5683 5686 5688 5690 5692 5694 5697 5700 5703 5706 5709 5711
5592 5590 5590 5590 5592 5595 5598 5603 5608 5615 5622 5629 5636 5643 5649 5653 5657 5661 5665 5667 5669 5671 5672 5673 5673 5673 5674 5674 5675 5676 5677 5679 5681 5683 5685 5688 5691 5694 5697 5700 5703 5706 5707
5571 5569 5568 5568 5568 5570 5572 5576 5581 5588 5597 5606 5615 5624 5631 5637 5642 5647 5652 5655 5658 5661 5663 5665 5666 5666 5667 5669 5670 5671 5673 5675 5677 5679 5681 5684 5688 5691 5694 5697 5700 5702 5704
5558 5555 5553 5552 5552 5552 5552 5554 5558 5563 5571 5581 5592 5603 5613 5621 5626 5632 5638 5643 5647 5650 5653 5656 5658 5659 5661 5663 5665 5667 5668 5670 5672 5675 5678 5682 5686 5689 5691 5694 5696 5698 5700
5546 5543 5541 5540 5540 5539 5539 5540 5541 5544 5550 5560 5571 5583 5594 5603 5611 5617 5625 5631 5636 5640 5644 5647 5650 5653 5655 5657 5659 5662 5664 5667 5669 5672 5676 5680 5683 5686 5689 5691 5693 5695 5697
5531 5530 5529 5529 5529 5529 5529 5529 5529 5532 5536 5543 5554 5565 5577 5587 5596 5604 5612 5619 5626 5631 5636 5640 5643 5646 5649 5652 5654 5657 5660 5663 5667 5671 5674 5678 5681 5684 5686 5688 5690 5692 5694
5515 5515 5515 5516 5518 5519 5520 5520 5522 5524 5528 5533 5541 5551 5562 5573 5584 5592 5600 5609 5616 5623 5628 5632 5637 5640 5644 5647 5650 5653 5657 5661 5665 5669 5673 5676 5678 5681 5684 5686 5688 5690 5692
5497 5497 5499 5503 5506 5510 5512 5514 5517 5520 5524 5528 5535 5542 5552 5562 5573 5583 5592 5601 5609 5615 5621 5626 5631 5635 5639 5643 5646 5650 5655 5659 5663 5667 5670 5673 5676 5679 5682 5684 5686 5688 5689
5479 5480 5483 5488 5494 5500 5504 5508 5511 5515 5519 5524 5529 5536 5545 5554 5565 5575 5585 5593 5601 5608 5615 5621 5626 5631 5636 5640 5644 5649 5653 5658 5661 5665 5668 5671 5674 5677 5679 5681 5683 5685 5686
5462 5464 5469 5475 5482 5489 5495 5501 5505 5510 5514 5519 5524 5531 5539 5549 5559 5570 5579 5588 5595 5603 5610 5616 5622 5628 5633 5638 5642 5647 5651 5655 5659 5662 5666 5669 5672 5674 5677 5678 5680 5681 5682
5447 5450 5455 5462 5470 5479 5487 5493 5499 5504 5509 5514 5520 5527 5535 5545 5556 5566 5576 5584 5591 5599 5606 5613 5619 5625 5630 5635 5640 5645 5649 5653 5657 5660 5663 5666 5669 5671 5673 5675 5676 5677 5678
5435 5438 5444 5452 5461 5471 5479 5486 5493 5499 5504 5510 5516 5523 5532 5542 5553 5564 5573 5582 5590 5597 5604 5610 5617 5623 5628 5633 5638 5643 5647 5651 5654 5658 5661 5663 5665 5668 5669 5671 5672 5672 5673
5428 5431 5438 5446 5455 5465 5473 5481 5488 5494 5500 5506 5513 5521 5530 5541 5552 5562 5572 5580 5588 5595 5602 5608 5615 5620 5626 5631 5636 5640 5644 5648 5651 5654 5657 5660 5662 5663 5665 5666 5667 5667 5667
5425 5429 5435 5443 5453 5462 5470 5478 5485 5492 5498 5505 5512 5521 5531 5542 5553 5564 5573 5582 5589 5596 5602 5608 5614 5619 5624 5629 5633 5637 5641 5645 5648 5651 5653 5655 5657 5659 5660 5661 5661 5661 5660
5425 5430 5436 5445 5453 5462 5470 5478 5484 5491 5498 5505 5514 5523 5534 5544 5555 5565 5574 5582 5589 5596 5602 5608 5613 5618 5622 5627 5631 5635 5638 5641 5644 5647 5649 5651 5652 5653 5654 5655 5654 5654 5653
5429 5434 5441 5449 5457 5465 5473 5479 5486 5493 5500 5509 5518 5528 5538 5548 5558 5566 5575 5583 5590 5596 5602 5608 5613 5617 5621 5625 5629 5632 5635 5637 5640 5642 5644 5646 5647 5647 5648 5648 5647 5646 5645
5438 5443 5449 5456 5464 5471 5478 5484 5491 5498 5506 5515 5524 5534 5544 5553 5561 5569 5577 5584 5591 5597 5602 5607 5612 5616 5620 5623 5626 5629 5631 5633 5635 5637 5639 5640 5641 5641 5641 5641 5640 5639 5638
5450 5455 5460 5467 5473 5479 5485 5492 5499 5507 5515 5523 5533 5541 5550 5558 5566 5573 5580 5587 5593 5598 5603 5607 5611 5615 5618 5621 5623 5625 5627 5629 5631 5632 5633 5634 5634 5635 5634 5634 5633 5632 5631
5465 5469 5474 5479 5485 5491 5497 5503 5511 5518 5526 5534 5542 5549 5556 5564 5570 5577 5583 5589 5594 5599 5603 5607 5610 5613 5615 5618 5619 5621 5623 5624 5626 5627 5628 5628 5629 5629 5628 5628 5627 5626 5624